Theta_e
341 339 338 339 337 336 336 337 340 339 339 338 337 336 336 334 333 334 328 332 332 329
338 338 336 338 338 337 339 337 338 338 337 337 336 336 336 334 335 334 326 327 333 331
337 337 336 337 337 337 337 336 336 335 335 335 336 337 337 335 335 332 326 329 332 332
334 335 336 336 336 336 336 335 334 334 335 336 335 335 335 335 333 332 326 325 330 330
335 335 335 334 335 334 333 334 334 335 334 334 333 334 332 332 331 327 323 323 323 326
333 334 334 334 333 333 334 334 334 334 333 332 332 331 332 330 327 324 322 323 321 326
332 333 333 333 333 334 334 333 333 333 332 332 331 331 331 332 328 324 324 323 325 327
332 333 333 332 332 333 333 332 332 333 331 331 332 325 330 330 328 325 323 323 323 328
331 331 331 331 331 331 331 332 332 332 330 331 326 304 309 322 328 326 324 324 325 324
331 330 329 331 331 332 330 330 331 331 330 328 323 303 303 312 328 326 324 322 321 319
331 330 329 330 331 330 331 329 332 330 330 325 319 301 302 310 327 325 323 321 321 319
331 330 329 329 331 333 331 329 330 329 329 323 322 301 302 318 325 323 322 322 321 321
330 330 329 330 332 333 334 331 328 326 329 315 324 300 301 318 324 320 319 321 320 305
331 331 331 331 332 333 331 330 328 326 329 323 322 318 300 308 324 321 319 319 317 313
Wind_Speed
13 10 10 9 9 7 6 6 8 7 7 6 5 5 5 5 5 6 6 8 7 6
11 12 11 11 9 8 7 7 8 7 6 6 6 6 5 5 6 6 5 5 6 6
11 11 12 11 11 9 8 8 8 8 7 6 5 6 6 5 6 7 3 5 7 6
12 13 12 11 10 9 9 9 9 8 7 6 5 4 4 5 5 7 5 2 4 6
12 11 10 10 10 10 10 8 8 7 6 5 4 3 4 4 5 6 6 2 3 4
11 10 10 10 10 10 9 8 7 6 5 4 3 3 3 3 5 6 7 5 3 4
10 10 9 9 9 9 8 7 6 5 4 3 1 1 2 1 4 6 6 7 5 6
10 9 9 9 8 8 7 6 6 6 5 4 2 3 3 5 4 6 6 5 5 6
10 9 9 8 9 8 6 6 7 6 5 5 4 5 3 3 4 5 5 6 5 5
9 9 9 9 8 8 8 8 7 6 5 6 5 5 2 6 5 5 4 4 5 5
9 10 9 8 7 7 8 7 7 6 6 5 4 2 3 7 7 6 5 5 5 7
9 10 10 8 8 6 10 7 6 5 5 6 5 4 3 6 7 6 7 7 7 8
10 10 10 8 8 6 6 8 6 6 5 4 6 4 2 7 5 6 6 7 8 9
9 8 8 8 6 7 8 7 7 6 5 4 5 4 2 7 6 6 6 6 6 5
Wind_Direction
137 137 137 141 140 139 153 153 155 158 157 162 178 182 190 197 209 203 204 224 218 220
131 135 130 128 132 144 140 139 147 152 157 175 189 193 199 219 218 208 183 214 222 224
124 121 123 130 134 138 133 134 144 148 160 175 183 199 208 212 212 201 167 210 212 219
122 123 127 128 132 132 132 141 145 156 167 174 180 181 205 215 197 184 141 249 221 218
118 120 123 129 131 136 135 139 148 158 160 167 173 195 213 216 175 159 130 145 278 202
120 126 130 132 130 137 138 145 153 155 151 160 167 213 212 199 149 170 164 168 187 227
129 132 135 132 136 149 148 148 155 141 136 120 159 331 329 271 206 188 177 161 186 219
134 140 138 140 144 143 146 153 138 133 116 86 34 32 54 84 97 138 145 155 185 206
142 142 141 145 149 151 155 144 137 129 109 72 62 1 62 93 105 130 167 170 164 150
149 150 151 144 150 161 137 136 137 119 99 76 83 53 76 90 96 113 121 126 120 114
159 155 157 153 142 133 132 148 131 115 101 97 85 77 101 86 93 85 91 99 115 129
161 157 156 148 138 139 134 142 119 117 110 112 109 88 114 108 96 85 88 91 101 117
155 159 157 151 142 137 136 124 126 119 99 103 124 97 96 112 103 89 92 99 93 76
153 153 155 153 152 146 142 131 128 120 114 108 132 134 140 113 115 110 112 108 100 103